Time,TemperatureF,DewpointF,PressureIn,WindDirection,WindDirectionDegrees,WindSpeedMPH,WindSpeedGustMPH,Humidity,HourlyPrecipIn,Conditions,Clouds,dailyrainin,SoftwareType,DateUTC
2013-05-02 00:01:00,41.0,35.9,30.40,SSW,202,0.0,0.0,82,0.00,CLR,,0.00,WeatherDisplay:10.37,2013-05-02 04:01:00,
2013-05-02 00:06:00,40.8,35.7,30.40,SSW,202,0.0,0.0,82,0.00,CLR,,0.00,WeatherDisplay:10.37,2013-05-02 04:06:00,
2013-05-02 00:11:00,40.6,35.6,30.40,SSW,202,0.0,0.0,82,0.00,CLR,,0.00,WeatherDisplay:10.37,2013-05-02 04:11:00,
2013-05-02 00:16:00,40.6,35.6,30.40,SSW,202,0.0,0.0,82,0.00,CLR,,0.00,WeatherDisplay:10.37,2013-05-02 04:16:00,
2013-05-02 00:21:00,40.5,35.4,30.40,SW,225,0.0,0.0,82,0.00,CLR,,0.00,WeatherDisplay:10.37,2013-05-02 04:21:00,
2013-05-02 00:26:00,40.5,35.4,30.39,SW,225,0.0,0.0,82,0.00,CLR,,0.00,WeatherDisplay:10.37,2013-05-02 04:26:00,
2013-05-02 00:31:00,40.3,35.5,30.39,SW,225,0.0,0.0,83,0.00,CLR,,0.00,WeatherDisplay:10.37,2013-05-02 04:31:00,
2013-05-02 00:36:00,40.1,35.4,30.39,SW,225,0.0,0.0,83,0.00,CLR,,0.00,WeatherDisplay:10.37,2013-05-02 04:36:00,
2013-05-02 00:41:00,40.1,35.4,30.39,SW,225,0.0,0.0,83,0.00,CLR,,0.00,WeatherDisplay:10.37,2013-05-02 04:41:00,
2013-05-02 00:46:00,39.9,35.2,30.39,SW,225,0.0,0.0,83,0.00,CLR,,0.00,WeatherDisplay:10.37,2013-05-02 04:46:00,
2013-05-02 00:51:00,39.7,35.0,30.39,SW,225,0.0,0.0,83,0.00,CLR,,0.00,WeatherDisplay:10.37,2013-05-02 04:51:00,
2013-05-02 00:56:00,39.7,35.0,30.39,SW,225,0.0,0.0,83,0.00,CLR,,0.00,WeatherDisplay:10.37,2013-05-02 04:56:00,
2013-05-02 01:01:00,39.6,35.1,30.39,SW,225,0.0,0.0,84,0.00,CLR,,0.00,WeatherDisplay:10.37,2013-05-02 05:01:00,
2013-05-02 01:06:00,39.6,35.1,30.39,SW,225,0.0,0.0,84,0.00,CLR,,0.00,WeatherDisplay:10.37,2013-05-02 05:06:00,
2013-05-02 01:11:00,39.6,35.1,30.39,SW,225,0.0,0.0,84,0.00,CLR,,0.00,WeatherDisplay:10.37,2013-05-02 05:11:00,
2013-05-02 01:16:00,39.2,34.8,30.39,SW,225,0.0,0.0,84,0.00,CLR,,0.00,WeatherDisplay:10.37,2013-05-02 05:16:00,
2013-05-02 01:21:00,39.2,34.8,30.39,WSW,248,0.0,0.0,84,0.00,CLR,,0.00,WeatherDisplay:10.37,2013-05-02 05:21:00,
2013-05-02 01:26:00,39.2,34.8,30.39,West,270,0.0,0.0,84,0.00,CLR,,0.00,WeatherDisplay:10.37,2013-05-02 05:26:00,
2013-05-02 01:31:00,39.2,34.8,30.39,West,270,0.0,0.0,84,0.00,CLR,,0.00,WeatherDisplay:10.37,2013-05-02 05:31:00,
2013-05-02 01:36:00,39.2,34.8,30.39,West,270,0.0,0.0,84,0.00,CLR,,0.00,WeatherDisplay:10.37,2013-05-02 05:36:00,
2013-05-02 01:41:00,39.0,34.6,30.39,West,270,0.0,0.0,84,0.00,CLR,,0.00,WeatherDisplay:10.37,2013-05-02 05:41:00,
2013-05-02 01:46:00,39.0,34.6,30.39,West,270,0.0,0.0,84,0.00,CLR,,0.00,WeatherDisplay:10.37,2013-05-02 05:46:00,
2013-05-02 01:51:00,39.0,34.6,30.39,West,270,0.0,0.0,84,0.00,CLR,,0.00,WeatherDisplay:10.37,2013-05-02 05:51:00,
2013-05-02 01:56:00,38.8,34.4,30.39,West,270,0.0,0.0,84,0.00,CLR,,0.00,WeatherDisplay:10.37,2013-05-02 05:56:00,
2013-05-02 02:01:00,38.8,34.4,30.39,West,270,0.0,0.0,84,0.00,CLR,,0.00,WeatherDisplay:10.37,2013-05-02 06:01:00,
2013-05-02 02:06:00,38.7,34.2,30.39,West,270,0.0,0.0,84,0.00,CLR,,0.00,WeatherDisplay:10.37,2013-05-02 06:06:00,
2013-05-02 02:11:00,38.7,34.2,30.39,West,270,0.0,0.0,84,0.00,CLR,,0.00,WeatherDisplay:10.37,2013-05-02 06:11:00,
2013-05-02 02:16:00,38.7,34.2,30.39,West,270,0.0,0.0,84,0.00,CLR,,0.00,WeatherDisplay:10.37,2013-05-02 06:16:00,
2013-05-02 02:21:00,38.5,34.1,30.39,West,270,0.0,0.0,84,0.00,CLR,,0.00,WeatherDisplay:10.37,2013-05-02 06:21:00,
2013-05-02 02:26:00,38.5,34.1,30.38,West,270,0.0,0.0,84,0.00,CLR,,0.00,WeatherDisplay:10.37,2013-05-02 06:26:00,
2013-05-02 02:31:00,38.5,34.4,30.38,West,270,0.0,0.0,85,0.00,CLR,,0.00,WeatherDisplay:10.37,2013-05-02 06:31:00,
2013-05-02 02:36:00,38.3,34.2,30.38,West,270,0.0,0.0,85,0.00,CLR,,0.00,WeatherDisplay:10.37,2013-05-02 06:36:00,
2013-05-02 02:41:00,38.3,34.2,30.38,West,270,0.0,0.0,85,0.00,CLR,,0.00,WeatherDisplay:10.37,2013-05-02 06:41:00,
2013-05-02 02:46:00,38.1,34.0,30.38,West,270,0.0,0.0,85,0.00,CLR,,0.00,WeatherDisplay:10.37,2013-05-02 06:46:00,
2013-05-02 02:51:00,38.1,34.0,30.38,West,270,0.0,0.0,85,0.00,CLR,,0.00,WeatherDisplay:10.37,2013-05-02 06:51:00,
2013-05-02 02:56:00,37.9,33.8,30.38,West,270,0.0,0.0,85,0.00,CLR,,0.00,WeatherDisplay:10.37,2013-05-02 06:56:00,
2013-05-02 03:01:00,37.8,33.7,30.37,West,270,0.0,0.0,85,0.00,CLR,,0.00,WeatherDisplay:10.37,2013-05-02 07:01:00,
2013-05-02 03:06:00,37.8,33.7,30.37,West,270,0.0,0.0,85,0.00,CLR,,0.00,WeatherDisplay:10.37,2013-05-02 07:06:00,
2013-05-02 03:11:00,37.8,33.7,30.37,West,270,0.0,0.0,85,0.00,CLR,,0.00,WeatherDisplay:10.37,2013-05-02 07:11:00,
2013-05-02 03:16:00,37.6,33.5,30.37,West,270,0.0,0.0,85,0.00,CLR,,0.00,WeatherDisplay:10.37,2013-05-02 07:16:00,
2013-05-02 03:21:00,37.6,33.5,30.37,West,270,0.0,0.0,85,0.00,CLR,,0.00,WeatherDisplay:10.37,2013-05-02 07:21:00,
2013-05-02 03:26:00,37.6,33.5,30.37,West,270,0.0,0.0,85,0.00,CLR,,0.00,WeatherDisplay:10.37,2013-05-02 07:26:00,
2013-05-02 03:31:00,37.6,33.5,30.38,WNW,292,0.0,0.0,85,0.00,CLR,,0.00,WeatherDisplay:10.37,2013-05-02 07:31:00,
2013-05-02 03:36:00,37.6,33.5,30.38,NW,315,0.0,0.0,85,0.00,CLR,,0.00,WeatherDisplay:10.37,2013-05-02 07:36:00,
2013-05-02 03:41:00,37.8,33.9,30.38,NW,315,0.0,0.0,86,0.00,CLR,,0.00,WeatherDisplay:10.37,2013-05-02 07:41:00,
2013-05-02 03:46:00,37.8,33.9,30.37,NW,315,0.0,0.0,86,0.00,CLR,,0.00,WeatherDisplay:10.37,2013-05-02 07:46:00,
2013-05-02 03:51:00,37.8,33.9,30.37,NW,315,0.0,0.0,86,0.00,CLR,,0.00,WeatherDisplay:10.37,2013-05-02 07:51:00,
2013-05-02 03:56:00,37.8,33.9,30.37,NW,315,0.0,0.0,86,0.00,CLR,,0.00,WeatherDisplay:10.37,2013-05-02 07:56:00,
2013-05-02 04:01:00,37.8,33.9,30.37,NW,315,0.0,0.0,86,0.00,CLR,,0.00,WeatherDisplay:10.37,2013-05-02 08:01:00,
2013-05-02 04:06:00,37.8,33.9,30.37,NW,315,0.0,0.0,86,0.00,CLR,,0.00,WeatherDisplay:10.37,2013-05-02 08:06:00,
2013-05-02 04:11:00,37.6,33.8,30.37,NW,315,0.0,0.0,86,0.00,CLR,,0.00,WeatherDisplay:10.37,2013-05-02 08:11:00,
2013-05-02 04:16:00,37.6,33.8,30.37,NW,315,0.0,0.0,86,0.00,CLR,,0.00,WeatherDisplay:10.37,2013-05-02 08:16:00,
2013-05-02 04:21:00,37.6,33.8,30.36,NW,315,0.0,0.0,86,0.00,CLR,,0.00,WeatherDisplay:10.37,2013-05-02 08:21:00,
2013-05-02 04:26:00,37.6,33.8,30.37,NW,315,0.0,0.0,86,0.00,CLR,,0.00,WeatherDisplay:10.37,2013-05-02 08:26:00,
2013-05-02 04:31:00,37.6,33.8,30.37,NW,315,0.0,0.0,86,0.00,CLR,,0.00,WeatherDisplay:10.37,2013-05-02 08:31:00,
2013-05-02 04:36:00,37.6,33.8,30.37,NW,315,0.0,0.0,86,0.00,CLR,,0.00,WeatherDisplay:10.37,2013-05-02 08:36:00,
2013-05-02 04:41:00,37.6,33.8,30.37,NW,315,0.0,0.0,86,0.00,CLR,,0.00,WeatherDisplay:10.37,2013-05-02 08:41:00,
2013-05-02 04:46:00,37.8,33.9,30.36,NW,315,0.0,0.0,86,0.00,CLR,,0.00,WeatherDisplay:10.37,2013-05-02 08:46:00,
2013-05-02 04:51:00,37.8,33.9,30.37,NNW,338,0.0,0.0,86,0.00,CLR,,0.00,WeatherDisplay:10.37,2013-05-02 08:51:00,
2013-05-02 04:56:00,37.8,33.9,30.36,NNW,338,0.0,0.0,86,0.00,CLR,,0.00,WeatherDisplay:10.37,2013-05-02 08:56:00,
2013-05-02 05:01:00,37.8,33.9,30.36,NNW,338,0.0,0.0,86,0.00,CLR,,0.00,WeatherDisplay:10.37,2013-05-02 09:01:00,
2013-05-02 05:06:00,37.8,34.2,30.37,NNW,338,0.0,1.1,87,0.00,CLR,,0.00,WeatherDisplay:10.37,2013-05-02 09:06:00,
2013-05-02 05:11:00,37.8,33.9,30.37,NW,315,0.0,0.0,86,0.00,CLR,,0.00,WeatherDisplay:10.37,2013-05-02 09:11:00,
2013-05-02 05:16:00,37.8,34.2,30.37,NNW,338,0.0,0.0,87,0.00,CLR,,0.00,WeatherDisplay:10.37,2013-05-02 09:16:00,
2013-05-02 05:21:00,37.9,34.4,30.36,NNW,338,0.0,0.0,87,0.00,CLR,,0.00,WeatherDisplay:10.37,2013-05-02 09:21:00,
2013-05-02 05:26:00,37.9,34.4,30.36,North,0,0.2,0.2,87,0.00,CLR,,0.00,WeatherDisplay:10.37,2013-05-02 09:26:00,
2013-05-02 05:31:00,37.9,34.4,30.36,North,0,0.0,0.0,87,0.00,CLR,,0.00,WeatherDisplay:10.37,2013-05-02 09:31:00,
2013-05-02 05:36:00,37.8,34.2,30.36,North,0,0.0,0.0,87,0.00,CLR,,0.00,WeatherDisplay:10.37,2013-05-02 09:36:00,
2013-05-02 05:41:00,37.8,34.2,30.36,North,0,0.0,0.0,87,0.00,CLR,,0.00,WeatherDisplay:10.37,2013-05-02 09:41:00,
2013-05-02 05:46:00,37.8,34.2,30.36,North,0,0.0,0.0,87,0.00,CLR,,0.00,WeatherDisplay:10.37,2013-05-02 09:46:00,
2013-05-02 05:51:00,37.8,34.2,30.37,North,0,0.0,0.0,87,0.00,CLR,,0.00,WeatherDisplay:10.37,2013-05-02 09:51:00,
2013-05-02 05:56:00,37.8,34.2,30.36,North,0,0.0,0.0,87,0.00,CLR,,0.00,WeatherDisplay:10.37,2013-05-02 09:56:00,
2013-05-02 06:01:00,37.8,34.2,30.36,North,0,0.0,0.0,87,0.00,CLR,,0.00,WeatherDisplay:10.37,2013-05-02 10:01:00,
2013-05-02 06:06:00,37.8,34.2,30.36,North,0,0.0,0.0,87,0.00,CLR,,0.00,WeatherDisplay:10.37,2013-05-02 10:06:00,
2013-05-02 06:11:00,37.9,34.4,30.36,North,0,0.0,0.0,87,0.00,CLR,,0.00,WeatherDisplay:10.37,2013-05-02 10:11:00,
2013-05-02 06:16:00,38.1,34.6,30.36,North,0,0.0,0.0,87,0.00,CLR,,0.00,WeatherDisplay:10.37,2013-05-02 10:16:00,
2013-05-02 06:21:00,38.5,34.9,30.36,North,0,0.0,0.0,87,0.00,CLR,,0.00,WeatherDisplay:10.37,2013-05-02 10:21:00,
2013-05-02 06:26:00,38.7,35.1,30.37,North,0,0.0,0.0,87,0.00,CLR,,0.00,WeatherDisplay:10.37,2013-05-02 10:26:00,
2013-05-02 06:31:00,39.2,35.7,30.37,North,0,0.0,0.0,87,0.00,CLR,,0.00,WeatherDisplay:10.37,2013-05-02 10:31:00,
2013-05-02 06:36:00,39.4,35.8,30.36,North,0,0.0,0.0,87,0.00,CLR,,0.00,WeatherDisplay:10.37,2013-05-02 10:36:00,
2013-05-02 06:41:00,39.9,36.4,30.37,North,0,0.0,0.0,87,0.00,CLR,,0.00,WeatherDisplay:10.37,2013-05-02 10:41:00,
2013-05-02 06:46:00,40.3,36.7,30.37,NNW,338,0.0,0.0,87,0.00,CLR,,0.00,WeatherDisplay:10.37,2013-05-02 10:46:00,
2013-05-02 06:51:00,40.8,37.3,30.37,NNW,338,0.0,0.0,87,0.00,CLR,,0.00,WeatherDisplay:10.37,2013-05-02 10:51:00,
2013-05-02 06:56:00,41.4,37.8,30.37,NNW,338,0.0,0.0,87,0.00,CLR,,0.00,WeatherDisplay:10.37,2013-05-02 10:56:00,
2013-05-02 07:01:00,41.9,38.6,30.37,NNW,338,0.7,1.1,88,0.00,CLR,,0.00,WeatherDisplay:10.37,2013-05-02 11:01:00,
2013-05-02 07:06:00,42.8,39.5,30.37,NW,315,0.0,0.5,88,0.00,CLR,,0.00,WeatherDisplay:10.37,2013-05-02 11:06:00,
2013-05-02 07:11:00,43.5,40.2,30.37,NNW,338,0.0,1.1,88,0.00,CLR,,0.00,WeatherDisplay:10.37,2013-05-02 11:11:00,
2013-05-02 07:16:00,44.4,41.1,30.37,NW,315,0.5,1.1,88,0.00,CLR,,0.00,WeatherDisplay:10.37,2013-05-02 11:16:00,
2013-05-02 07:21:00,45.3,42.3,30.37,NNW,338,0.0,0.0,89,0.00,CLR,,0.00,WeatherDisplay:10.37,2013-05-02 11:21:00,
2013-05-02 07:26:00,46.2,43.2,30.37,NW,315,0.9,0.9,89,0.00,CLR,,0.00,WeatherDisplay:10.37,2013-05-02 11:26:00,
2013-05-02 07:31:00,47.1,44.0,30.38,NNW,338,0.0,0.0,89,0.00,CLR,,0.00,WeatherDisplay:10.37,2013-05-02 11:31:00,
2013-05-02 07:36:00,48.2,45.1,30.38,NW,315,1.4,1.4,89,0.00,CLR,,0.00,WeatherDisplay:10.37,2013-05-02 11:36:00,
2013-05-02 07:41:00,49.1,46.0,30.38,NNW,338,0.9,2.3,89,0.00,CLR,,0.00,WeatherDisplay:10.37,2013-05-02 11:41:00,
2013-05-02 07:46:00,50.2,46.8,30.37,NNW,338,0.9,1.1,88,0.00,CLR,,0.00,WeatherDisplay:10.37,2013-05-02 11:46:00,
2013-05-02 07:51:00,51.4,48.0,30.38,NW,315,1.1,1.1,88,0.00,CLR,,0.00,WeatherDisplay:10.37,2013-05-02 11:51:00,
2013-05-02 07:56:00,52.5,48.5,30.38,NW,315,1.1,1.1,86,0.00,CLR,,0.00,WeatherDisplay:10.37,2013-05-02 11:56:00,
2013-05-02 08:01:00,53.4,48.7,30.38,NW,315,1.1,1.1,84,0.00,CLR,,0.00,WeatherDisplay:10.37,2013-05-02 12:01:00,
2013-05-02 08:06:00,54.3,47.6,30.38,NW,315,1.1,1.1,78,0.00,CLR,,0.00,WeatherDisplay:10.37,2013-05-02 12:06:00,
2013-05-02 08:11:00,55.4,48.0,30.38,NW,315,1.1,1.1,76,0.00,CLR,,0.00,WeatherDisplay:10.37,2013-05-02 12:11:00,
2013-05-02 08:16:00,55.9,47.0,30.38,NW,315,1.1,1.1,72,0.00,CLR,,0.00,WeatherDisplay:10.37,2013-05-02 12:16:00,
2013-05-02 08:21:00,56.5,47.6,30.38,NW,315,1.1,1.1,72,0.00,CLR,,0.00,WeatherDisplay:10.37,2013-05-02 12:21:00,
2013-05-02 08:26:00,57.2,46.7,30.38,NW,315,1.1,1.1,68,0.00,CLR,,0.00,WeatherDisplay:10.37,2013-05-02 12:26:00,
2013-05-02 08:31:00,57.7,46.5,30.38,NW,315,1.1,1.1,66,0.00,CLR,,0.00,WeatherDisplay:10.37,2013-05-02 12:31:00,
2013-05-02 08:36:00,58.5,47.1,30.38,NW,315,1.1,1.1,66,0.00,CLR,,0.00,WeatherDisplay:10.37,2013-05-02 12:36:00,
2013-05-02 08:41:00,59.0,46.0,30.38,NW,315,1.1,1.1,62,0.00,CLR,,0.00,WeatherDisplay:10.37,2013-05-02 12:41:00,
2013-05-02 08:46:00,59.5,46.9,30.37,NW,315,1.1,1.1,63,0.00,CLR,,0.00,WeatherDisplay:10.37,2013-05-02 12:46:00,
2013-05-02 08:51:00,60.3,46.3,30.37,NW,315,1.1,1.1,60,0.00,CLR,,0.00,WeatherDisplay:10.37,2013-05-02 12:51:00,
2013-05-02 08:56:00,60.8,46.8,30.37,NW,315,1.1,1.1,60,0.00,CLR,,0.00,WeatherDisplay:10.37,2013-05-02 12:56:00,
2013-05-02 09:01:00,61.2,45.3,30.37,NW,315,1.1,1.1,56,0.00,CLR,,0.00,WeatherDisplay:10.37,2013-05-02 13:01:00,
2013-05-02 09:06:00,61.7,45.4,30.38,NW,315,1.1,1.1,55,0.00,CLR,,0.00,WeatherDisplay:10.37,2013-05-02 13:06:00,
2013-05-02 09:11:00,62.1,45.2,30.37,NW,315,1.1,1.1,54,0.00,CLR,,0.00,WeatherDisplay:10.37,2013-05-02 13:11:00,
2013-05-02 09:16:00,63.0,48.4,30.37,NW,315,1.1,1.1,59,0.00,CLR,,0.00,WeatherDisplay:10.37,2013-05-02 13:16:00,
2013-05-02 09:21:00,63.5,47.0,30.37,NW,315,1.1,1.1,55,0.00,CLR,,0.00,WeatherDisplay:10.37,2013-05-02 13:21:00,
2013-05-02 09:26:00,63.9,47.4,30.37,NW,315,1.1,1.1,55,0.00,CLR,,0.00,WeatherDisplay:10.37,2013-05-02 13:26:00,
2013-05-02 09:31:00,64.4,47.4,30.37,NW,315,1.1,1.1,54,0.00,CLR,,0.00,WeatherDisplay:10.37,2013-05-02 13:31:00,
2013-05-02 09:36:00,64.8,45.1,30.37,NW,315,1.1,1.1,49,0.00,CLR,,0.00,WeatherDisplay:10.37,2013-05-02 13:36:00,
2013-05-02 09:41:00,64.9,46.9,30.37,NW,315,1.1,1.1,52,0.00,CLR,,0.00,WeatherDisplay:10.37,2013-05-02 13:41:00,
2013-05-02 09:46:00,64.9,45.8,30.37,NW,315,1.1,1.1,50,0.00,CLR,,0.00,WeatherDisplay:10.37,2013-05-02 13:46:00,
2013-05-02 09:51:00,65.5,47.4,30.37,NW,315,1.1,1.1,52,0.00,CLR,,0.00,WeatherDisplay:10.37,2013-05-02 13:51:00,
2013-05-02 09:56:00,66.2,47.5,30.37,NW,315,1.1,1.1,51,0.00,CLR,,0.00,WeatherDisplay:10.37,2013-05-02 13:56:00,
2013-05-02 10:01:00,66.6,48.4,30.37,NW,315,1.1,1.1,52,0.00,CLR,,0.00,WeatherDisplay:10.37,2013-05-02 14:01:00,
2013-05-02 10:06:00,67.1,47.3,30.37,NW,315,1.1,1.1,49,0.00,CLR,,0.00,WeatherDisplay:10.37,2013-05-02 14:06:00,
2013-05-02 10:11:00,67.5,47.6,30.37,NW,315,1.1,1.1,49,0.00,CLR,,0.00,WeatherDisplay:10.37,2013-05-02 14:11:00,
2013-05-02 10:16:00,67.8,49.0,30.36,NW,315,1.1,1.1,51,0.00,CLR,,0.00,WeatherDisplay:10.37,2013-05-02 14:16:00,
2013-05-02 10:21:00,68.0,49.2,30.36,NW,315,1.1,1.1,51,0.00,CLR,,0.00,WeatherDisplay:10.37,2013-05-02 14:21:00,
2013-05-02 10:26:00,68.2,49.4,30.36,NW,315,1.1,1.1,51,0.00,CLR,,0.00,WeatherDisplay:10.37,2013-05-02 14:26:00,
2013-05-02 10:31:00,68.7,48.8,30.36,ESE,112,2.9,2.9,49,0.00,CLR,,0.00,WeatherDisplay:10.37,2013-05-02 14:31:00,
2013-05-02 10:36:00,69.1,50.2,30.36,South,180,4.5,4.5,51,0.00,CLR,,0.00,WeatherDisplay:10.37,2013-05-02 14:36:00,
2013-05-02 10:41:00,69.1,50.2,30.36,South,180,4.5,4.6,51,0.00,CLR,,0.00,WeatherDisplay:10.37,2013-05-02 14:41:00,
2013-05-02 10:46:00,69.3,50.4,30.36,South,180,3.8,4.6,51,0.00,CLR,,0.00,WeatherDisplay:10.37,2013-05-02 14:46:00,
2013-05-02 10:51:00,69.6,50.7,30.36,SSE,158,5.6,5.8,51,0.00,CLR,,0.00,WeatherDisplay:10.37,2013-05-02 14:51:00,
2013-05-02 10:56:00,69.4,50.5,30.36,SSE,158,5.6,5.8,51,0.00,CLR,,0.00,WeatherDisplay:10.37,2013-05-02 14:56:00,
2013-05-02 11:01:00,69.6,50.2,30.36,SSE,158,5.6,5.8,50,0.00,CLR,,0.00,WeatherDisplay:10.37,2013-05-02 15:01:00,
2013-05-02 11:06:00,69.6,50.7,30.36,SSE,158,5.6,5.8,51,0.00,CLR,,0.00,WeatherDisplay:10.37,2013-05-02 15:06:00,
2013-05-02 11:11:00,70.0,50.5,30.36,SSE,158,5.6,5.8,50,0.00,CLR,,0.00,WeatherDisplay:10.37,2013-05-02 15:11:00,
2013-05-02 11:16:00,70.2,51.2,30.35,SSE,158,5.6,5.8,51,0.00,CLR,,0.00,WeatherDisplay:10.37,2013-05-02 15:16:00,
2013-05-02 11:21:00,70.5,51.5,30.36,SSE,158,5.6,5.8,51,0.00,CLR,,0.00,WeatherDisplay:10.37,2013-05-02 15:21:00,
2013-05-02 11:26:00,70.7,50.6,30.36,SSE,158,5.6,5.8,49,0.00,CLR,,0.00,WeatherDisplay:10.37,2013-05-02 15:26:00,
2013-05-02 11:31:00,70.7,51.1,30.36,SSE,158,5.6,5.8,50,0.00,CLR,,0.00,WeatherDisplay:10.37,2013-05-02 15:31:00,
2013-05-02 11:36:00,70.9,51.3,30.35,SSE,158,5.6,5.8,50,0.00,CLR,,0.00,WeatherDisplay:10.37,2013-05-02 15:36:00,
2013-05-02 11:41:00,70.9,50.8,30.35,SSE,158,5.6,5.8,49,0.00,CLR,,0.00,WeatherDisplay:10.37,2013-05-02 15:41:00,
2013-05-02 11:46:00,70.9,49.6,30.35,SSE,158,5.6,5.8,47,0.00,CLR,,0.00,WeatherDisplay:10.37,2013-05-02 15:46:00,
2013-05-02 11:51:00,71.1,49.8,30.35,SSE,158,5.6,5.8,47,0.00,CLR,,0.00,WeatherDisplay:10.37,2013-05-02 15:51:00,
2013-05-02 11:56:00,71.1,49.8,30.34,SSE,158,5.6,5.8,47,0.00,CLR,,0.00,WeatherDisplay:10.37,2013-05-02 15:56:00,
2013-05-02 12:01:00,71.1,50.4,30.34,SSE,158,5.6,5.8,48,0.00,CLR,,0.00,WeatherDisplay:10.37,2013-05-02 16:01:00,
2013-05-02 12:06:00,70.9,49.1,30.34,SSE,158,5.6,5.8,46,0.00,CLR,,0.00,WeatherDisplay:10.37,2013-05-02 16:06:00,
2013-05-02 12:11:00,71.1,49.2,30.34,SSE,158,5.6,5.8,46,0.00,CLR,,0.00,WeatherDisplay:10.37,2013-05-02 16:11:00,
2013-05-02 12:16:00,71.2,48.8,30.34,SSE,158,5.6,5.8,45,0.00,CLR,,0.00,WeatherDisplay:10.37,2013-05-02 16:16:00,
2013-05-02 12:21:00,71.4,50.1,30.33,SSE,158,5.6,5.8,47,0.00,CLR,,0.00,WeatherDisplay:10.37,2013-05-02 16:21:00,
2013-05-02 12:26:00,71.2,49.4,30.34,SSE,158,5.6,5.8,46,0.00,CLR,,0.00,WeatherDisplay:10.37,2013-05-02 16:26:00,
2013-05-02 12:31:00,71.2,48.2,30.34,SSE,158,5.6,5.8,44,0.00,CLR,,0.00,WeatherDisplay:10.37,2013-05-02 16:31:00,
2013-05-02 12:36:00,71.2,50.0,30.34,SSE,158,5.6,5.8,47,0.00,CLR,,0.00,WeatherDisplay:10.37,2013-05-02 16:36:00,
2013-05-02 12:41:00,71.4,49.0,30.34,SSE,158,5.6,5.8,45,0.00,CLR,,0.00,WeatherDisplay:10.37,2013-05-02 16:41:00,
2013-05-02 12:46:00,71.6,48.5,30.33,SSE,158,5.6,5.8,44,0.00,CLR,,0.00,WeatherDisplay:10.37,2013-05-02 16:46:00,
2013-05-02 12:51:00,71.8,49.9,30.34,SSE,158,5.6,5.8,46,0.00,CLR,,0.00,WeatherDisplay:10.37,2013-05-02 16:51:00,
2013-05-02 12:56:00,72.0,49.5,30.33,SSE,158,5.6,5.8,45,0.00,CLR,,0.00,WeatherDisplay:10.37,2013-05-02 16:56:00,
2013-05-02 13:01:00,71.8,48.7,30.33,SSE,158,5.6,5.8,44,0.00,CLR,,0.00,WeatherDisplay:10.37,2013-05-02 17:01:00,
2013-05-02 13:06:00,72.0,49.5,30.33,SSE,158,5.6,5.8,45,0.00,CLR,,0.00,WeatherDisplay:10.37,2013-05-02 17:06:00,
2013-05-02 13:11:00,72.5,49.3,30.33,SSE,158,5.6,5.8,44,0.00,CLR,,0.00,WeatherDisplay:10.37,2013-05-02 17:11:00,
2013-05-02 13:16:00,72.7,49.5,30.33,SSE,158,5.6,5.8,44,0.00,CLR,,0.00,WeatherDisplay:10.37,2013-05-02 17:16:00,
2013-05-02 13:21:00,72.7,48.9,30.33,SSE,158,5.6,5.8,43,0.00,CLR,,0.00,WeatherDisplay:10.37,2013-05-02 17:21:00,
2013-05-02 13:26:00,72.9,47.8,30.33,SSE,158,5.6,5.8,41,0.00,CLR,,0.00,WeatherDisplay:10.37,2013-05-02 17:26:00,
2013-05-02 13:31:00,73.0,49.2,30.33,South,180,1.8,2.3,43,0.00,CLR,,0.00,WeatherDisplay:10.37,2013-05-02 17:31:00,
2013-05-02 13:36:00,72.3,47.3,30.33,South,180,1.8,2.3,41,0.00,CLR,,0.00,WeatherDisplay:10.37,2013-05-02 17:36:00,
2013-05-02 13:41:00,72.9,49.7,30.33,SSW,202,4.9,4.9,44,0.00,CLR,,0.00,WeatherDisplay:10.37,2013-05-02 17:41:00,
2013-05-02 13:46:00,73.8,49.2,30.33,SSE,158,2.6,2.6,42,0.00,CLR,,0.00,WeatherDisplay:10.37,2013-05-02 17:46:00,
2013-05-02 13:51:00,73.8,49.2,30.33,SW,225,4.7,4.7,42,0.00,CLR,,0.00,WeatherDisplay:10.37,2013-05-02 17:51:00,
2013-05-02 13:56:00,73.8,49.2,30.32,SSW,202,2.2,4.6,42,0.00,CLR,,0.00,WeatherDisplay:10.37,2013-05-02 17:56:00,
2013-05-02 14:01:00,73.9,48.7,30.32,SSW,202,1.1,4.0,41,0.00,CLR,,0.00,WeatherDisplay:10.37,2013-05-02 18:01:00,
2013-05-02 14:06:00,74.1,48.9,30.32,SE,135,4.0,4.6,41,0.00,CLR,,0.00,WeatherDisplay:10.37,2013-05-02 18:06:00,
2013-05-02 14:11:00,74.1,48.9,30.33,SW,225,1.1,4.0,41,0.00,CLR,,0.00,WeatherDisplay:10.37,2013-05-02 18:11:00,
2013-05-02 14:16:00,74.3,49.1,30.32,SE,135,1.8,4.6,41,0.00,CLR,,0.00,WeatherDisplay:10.37,2013-05-02 18:16:00,
2013-05-02 14:21:00,74.1,49.6,30.32,South,180,1.6,6.9,42,0.00,CLR,,0.00,WeatherDisplay:10.37,2013-05-02 18:21:00,
2013-05-02 14:26:00,73.9,48.7,30.32,SSW,202,1.8,4.6,41,0.00,CLR,,0.00,WeatherDisplay:10.37,2013-05-02 18:26:00,
2013-05-02 14:31:00,73.8,49.2,30.32,SSW,202,1.8,4.6,42,0.00,CLR,,0.00,WeatherDisplay:10.37,2013-05-02 18:31:00,
2013-05-02 14:36:00,73.4,48.9,30.32,South,180,3.1,4.6,42,0.00,CLR,,0.00,WeatherDisplay:10.37,2013-05-02 18:36:00,
2013-05-02 14:41:00,73.4,48.9,30.32,SE,135,4.3,4.6,42,0.00,CLR,,0.00,WeatherDisplay:10.37,2013-05-02 18:41:00,
2013-05-02 14:46:00,73.6,49.1,30.32,SSE,158,4.0,4.6,42,0.00,CLR,,0.00,WeatherDisplay:10.37,2013-05-02 18:46:00,
2013-05-02 14:51:00,73.4,48.3,30.32,SSE,158,5.4,5.8,41,0.00,CLR,,0.00,WeatherDisplay:10.37,2013-05-02 18:51:00,
2013-05-02 14:56:00,73.2,48.1,30.32,SSE,158,4.0,5.8,41,0.00,CLR,,0.00,WeatherDisplay:10.37,2013-05-02 18:56:00,
2013-05-02 15:01:00,73.0,47.3,30.32,South,180,6.9,6.9,40,0.00,CLR,,0.00,WeatherDisplay:10.37,2013-05-02 19:01:00,
2013-05-02 15:06:00,72.5,46.8,30.32,SSW,202,4.0,6.9,40,0.00,CLR,,0.00,WeatherDisplay:10.37,2013-05-02 19:06:00,
2013-05-02 15:11:00,71.6,46.6,30.32,SSE,158,4.7,4.7,41,0.00,CLR,,0.00,WeatherDisplay:10.37,2013-05-02 19:11:00,
2013-05-02 15:16:00,71.1,46.8,30.31,SSE,158,4.7,4.7,42,0.00,CLR,,0.00,WeatherDisplay:10.37,2013-05-02 19:16:00,
2013-05-02 15:21:00,71.2,47.0,30.32,SSE,158,5.2,5.2,42,0.00,CLR,,0.00,WeatherDisplay:10.37,2013-05-02 19:21:00,
2013-05-02 15:26:00,71.2,47.0,30.32,ESE,112,2.4,4.6,42,0.00,CLR,,0.00,WeatherDisplay:10.37,2013-05-02 19:26:00,
2013-05-02 15:31:00,71.6,47.9,30.32,SSE,158,4.0,4.6,43,0.00,CLR,,0.00,WeatherDisplay:10.37,2013-05-02 19:31:00,
2013-05-02 15:36:00,71.4,46.5,30.32,SSE,158,4.7,6.9,41,0.00,CLR,,0.00,WeatherDisplay:10.37,2013-05-02 19:36:00,
2013-05-02 15:41:00,70.9,47.3,30.32,South,180,4.0,4.6,43,0.00,CLR,,0.00,WeatherDisplay:10.37,2013-05-02 19:41:00,
2013-05-02 15:46:00,70.7,46.5,30.33,ESE,112,1.1,4.6,42,0.00,CLR,,0.00,WeatherDisplay:10.37,2013-05-02 19:46:00,
2013-05-02 15:51:00,70.7,45.8,30.32,South,180,4.9,6.9,41,0.00,CLR,,0.00,WeatherDisplay:10.37,2013-05-02 19:51:00,
2013-05-02 15:56:00,70.7,46.5,30.32,South,180,4.7,4.7,42,0.00,CLR,,0.00,WeatherDisplay:10.37,2013-05-02 19:56:00,
2013-05-02 16:01:00,70.5,46.3,30.32,ESE,112,2.0,4.0,42,0.00,CLR,,0.00,WeatherDisplay:10.37,2013-05-02 20:01:00,
2013-05-02 16:06:00,70.3,46.8,30.33,East,90,4.9,4.9,43,0.00,CLR,,0.00,WeatherDisplay:10.37,2013-05-02 20:06:00,
2013-05-02 16:11:00,70.0,45.2,30.33,East,90,5.4,10.4,41,0.00,CLR,,0.00,WeatherDisplay:10.37,2013-05-02 20:11:00,
2013-05-02 16:16:00,68.7,44.7,30.33,ESE,112,4.9,6.9,42,0.00,CLR,,0.00,WeatherDisplay:10.37,2013-05-02 20:16:00,
2013-05-02 16:21:00,68.0,45.9,30.34,SE,135,4.5,4.6,45,0.00,CLR,,0.00,WeatherDisplay:10.37,2013-05-02 20:21:00,
2013-05-02 16:26:00,68.0,46.4,30.33,South,180,7.4,7.4,46,0.00,CLR,,0.00,WeatherDisplay:10.37,2013-05-02 20:26:00,
2013-05-02 16:31:00,68.7,47.1,30.32,SE,135,5.2,5.2,46,0.00,CLR,,0.00,WeatherDisplay:10.37,2013-05-02 20:31:00,
2013-05-02 16:36:00,69.6,47.9,30.32,SSE,158,5.2,6.9,46,0.00,CLR,,0.00,WeatherDisplay:10.37,2013-05-02 20:36:00,
2013-05-02 16:41:00,68.2,46.6,30.33,East,90,2.0,4.0,46,0.00,CLR,,0.00,WeatherDisplay:10.37,2013-05-02 20:41:00,
2013-05-02 16:46:00,66.6,46.8,30.33,SSE,158,6.2,6.2,49,0.00,CLR,,0.00,WeatherDisplay:10.37,2013-05-02 20:46:00,
2013-05-02 16:51:00,65.1,47.6,30.33,ESE,112,6.9,6.9,53,0.00,CLR,,0.00,WeatherDisplay:10.37,2013-05-02 20:51:00,
2013-05-02 16:56:00,63.7,47.7,30.32,SSE,158,3.8,4.0,56,0.00,CLR,,0.00,WeatherDisplay:10.37,2013-05-02 20:56:00,
2013-05-02 17:01:00,63.3,48.3,30.32,SSE,158,3.3,4.7,58,0.00,CLR,,0.00,WeatherDisplay:10.37,2013-05-02 21:01:00,
2013-05-02 17:06:00,62.6,48.1,30.32,SSE,158,3.6,5.8,59,0.00,CLR,,0.00,WeatherDisplay:10.37,2013-05-02 21:06:00,
2013-05-02 17:11:00,62.1,48.4,30.32,SSE,158,4.7,4.7,61,0.00,CLR,,0.00,WeatherDisplay:10.37,2013-05-02 21:11:00,
2013-05-02 17:16:00,61.7,48.5,30.32,ESE,112,2.6,4.6,62,0.00,CLR,,0.00,WeatherDisplay:10.37,2013-05-02 21:16:00,
2013-05-02 17:21:00,61.5,48.4,30.32,SSE,158,2.4,4.0,62,0.00,CLR,,0.00,WeatherDisplay:10.37,2013-05-02 21:21:00,
2013-05-02 17:26:00,61.5,48.4,30.32,SE,135,1.1,4.0,62,0.00,CLR,,0.00,WeatherDisplay:10.37,2013-05-02 21:26:00,
2013-05-02 17:31:00,61.2,48.5,30.33,South,180,2.4,4.0,63,0.00,CLR,,0.00,WeatherDisplay:10.37,2013-05-02 21:31:00,
2013-05-02 17:36:00,61.2,48.5,30.33,South,180,2.4,4.0,63,0.00,CLR,,0.00,WeatherDisplay:10.37,2013-05-02 21:36:00,
2013-05-02 17:41:00,61.2,48.5,30.32,South,180,2.4,4.0,63,0.00,CLR,,0.00,WeatherDisplay:10.37,2013-05-02 21:41:00,
2013-05-02 17:46:00,61.0,48.3,30.33,South,180,2.4,3.5,63,0.00,CLR,,0.00,WeatherDisplay:10.37,2013-05-02 21:46:00,
2013-05-02 17:51:00,60.8,47.7,30.33,South,180,2.4,3.5,62,0.00,CLR,,0.00,WeatherDisplay:10.37,2013-05-02 21:51:00,
2013-05-02 17:56:00,60.6,45.3,30.33,South,180,2.4,4.0,57,0.00,CLR,,0.00,WeatherDisplay:10.37,2013-05-02 21:56:00,
2013-05-02 18:01:00,60.1,43.4,30.34,South,180,2.4,4.0,54,0.00,CLR,,0.00,WeatherDisplay:10.37,2013-05-02 22:01:00,
2013-05-02 18:06:00,59.4,42.2,30.33,South,180,2.4,4.0,53,0.00,CLR,,0.00,WeatherDisplay:10.37,2013-05-02 22:06:00,
2013-05-02 18:11:00,58.6,43.0,30.34,South,180,2.4,4.0,56,0.00,CLR,,0.00,WeatherDisplay:10.37,2013-05-02 22:11:00,
2013-05-02 18:16:00,57.9,43.2,30.34,South,180,2.4,4.0,58,0.00,CLR,,0.00,WeatherDisplay:10.37,2013-05-02 22:16:00,
2013-05-02 18:21:00,57.2,43.0,30.34,South,180,2.4,4.0,59,0.00,CLR,,0.00,WeatherDisplay:10.37,2013-05-02 22:21:00,
2013-05-02 18:26:00,56.8,43.5,30.34,South,180,2.4,4.0,61,0.00,CLR,,0.00,WeatherDisplay:10.37,2013-05-02 22:26:00,
2013-05-02 18:31:00,56.5,43.2,30.34,South,180,2.4,3.5,61,0.00,CLR,,0.00,WeatherDisplay:10.37,2013-05-02 22:31:00,
2013-05-02 18:36:00,56.3,43.4,30.34,South,180,2.4,4.0,62,0.00,CLR,,0.00,WeatherDisplay:10.37,2013-05-02 22:36:00,
2013-05-02 18:41:00,55.8,43.3,30.35,South,180,2.4,4.0,63,0.00,CLR,,0.00,WeatherDisplay:10.37,2013-05-02 22:41:00,
2013-05-02 18:46:00,55.4,43.8,30.35,South,180,2.4,4.0,65,0.00,CLR,,0.00,WeatherDisplay:10.37,2013-05-02 22:46:00,
2013-05-02 18:51:00,54.9,43.7,30.35,NNW,338,1.4,4.6,66,0.00,CLR,,0.00,WeatherDisplay:10.37,2013-05-02 22:51:00,
2013-05-02 18:56:00,54.1,44.2,30.35,NNE,22,2.9,4.6,69,0.00,CLR,,0.00,WeatherDisplay:10.37,2013-05-02 22:56:00,
2013-05-02 19:01:00,53.6,43.7,30.35,NNE,22,1.8,6.9,69,0.00,CLR,,0.00,WeatherDisplay:10.37,2013-05-02 23:01:00,
2013-05-02 19:06:00,53.4,43.5,30.35,NE,45,1.1,2.3,69,0.00,CLR,,0.00,WeatherDisplay:10.37,2013-05-02 23:06:00,
2013-05-02 19:11:00,53.2,43.7,30.35,North,0,2.4,2.4,70,0.00,CLR,,0.00,WeatherDisplay:10.37,2013-05-02 23:11:00,
2013-05-02 19:16:00,52.9,43.7,30.35,North,0,1.1,4.6,71,0.00,CLR,,0.00,WeatherDisplay:10.37,2013-05-02 23:16:00,
2013-05-02 19:21:00,52.5,43.8,30.36,NNE,22,2.2,5.8,72,0.00,CLR,,0.00,WeatherDisplay:10.37,2013-05-02 23:21:00,
2013-05-02 19:26:00,52.0,43.2,30.36,East,90,2.2,2.3,72,0.00,CLR,,0.00,WeatherDisplay:10.37,2013-05-02 23:26:00,
2013-05-02 19:31:00,51.8,43.8,30.36,NE,45,2.0,6.9,74,0.00,CLR,,0.00,WeatherDisplay:10.37,2013-05-02 23:31:00,
2013-05-02 19:36:00,51.4,43.4,30.37,NE,45,3.3,8.1,74,0.00,CLR,,0.00,WeatherDisplay:10.37,2013-05-02 23:36:00,
2013-05-02 19:41:00,51.3,43.6,30.37,East,90,5.2,5.8,75,0.00,CLR,,0.00,WeatherDisplay:10.37,2013-05-02 23:41:00,
2013-05-02 19:46:00,51.1,43.4,30.36,ENE,68,6.0,6.0,75,0.00,CLR,,0.00,WeatherDisplay:10.37,2013-05-02 23:46:00,
2013-05-02 19:51:00,50.7,43.4,30.36,NE,45,1.1,5.8,76,0.00,CLR,,0.00,WeatherDisplay:10.37,2013-05-02 23:51:00,
2013-05-02 19:56:00,50.7,43.4,30.37,ENE,68,5.4,6.9,76,0.00,CLR,,0.00,WeatherDisplay:10.37,2013-05-02 23:56:00,
2013-05-02 20:01:00,50.5,42.9,30.37,North,0,2.0,2.3,75,0.00,CLR,,0.00,WeatherDisplay:10.37,2013-05-03 00:01:00,
2013-05-02 20:06:00,50.4,43.1,30.37,ENE,68,6.4,6.4,76,0.00,CLR,,0.00,WeatherDisplay:10.37,2013-05-03 00:06:00,
2013-05-02 20:11:00,50.4,42.7,30.38,ENE,68,2.0,2.3,75,0.00,CLR,,0.00,WeatherDisplay:10.37,2013-05-03 00:11:00,
2013-05-02 20:16:00,50.0,42.0,30.38,NNE,22,2.6,4.6,74,0.00,CLR,,0.00,WeatherDisplay:10.37,2013-05-03 00:16:00,
2013-05-02 20:21:00,50.0,42.0,30.38,ENE,68,4.5,4.5,74,0.00,CLR,,0.00,WeatherDisplay:10.37,2013-05-03 00:21:00,
2013-05-02 20:26:00,49.8,41.5,30.38,NNW,338,0.5,2.3,73,0.00,CLR,,0.00,WeatherDisplay:10.37,2013-05-03 00:26:00,
2013-05-02 20:31:00,49.8,41.9,30.38,East,90,2.2,2.2,74,0.00,CLR,,0.00,WeatherDisplay:10.37,2013-05-03 00:31:00,
2013-05-02 20:36:00,49.6,41.7,30.38,NW,315,0.9,3.5,74,0.00,CLR,,0.00,WeatherDisplay:10.37,2013-05-03 00:36:00,
2013-05-02 20:41:00,49.5,41.5,30.39,ENE,68,1.6,5.8,74,0.00,CLR,,0.00,WeatherDisplay:10.37,2013-05-03 00:41:00,
2013-05-02 20:46:00,49.5,41.5,30.39,ENE,68,1.1,1.3,74,0.00,CLR,,0.00,WeatherDisplay:10.37,2013-05-03 00:46:00,
2013-05-02 20:51:00,49.5,41.5,30.39,NE,45,4.3,4.3,74,0.00,CLR,,0.00,WeatherDisplay:10.37,2013-05-03 00:51:00,
2013-05-02 20:56:00,49.3,41.3,30.39,NE,45,2.0,4.6,74,0.00,CLR,,0.00,WeatherDisplay:10.37,2013-05-03 00:56:00,
2013-05-02 21:01:00,49.3,41.3,30.39,ENE,68,3.3,3.5,74,0.00,CLR,,0.00,WeatherDisplay:10.37,2013-05-03 01:01:00,
2013-05-02 21:06:00,49.1,41.5,30.39,NE,45,2.4,3.5,75,0.00,CLR,,0.00,WeatherDisplay:10.37,2013-05-03 01:06:00,
2013-05-02 21:11:00,48.9,41.3,30.39,ENE,68,4.0,4.0,75,0.00,CLR,,0.00,WeatherDisplay:10.37,2013-05-03 01:11:00,
2013-05-02 21:16:00,48.7,40.8,30.39,ENE,68,0.7,1.3,74,0.00,CLR,,0.00,WeatherDisplay:10.37,2013-05-03 01:16:00,
2013-05-02 21:21:00,48.6,40.3,30.39,East,90,0.5,2.3,73,0.00,CLR,,0.00,WeatherDisplay:10.37,2013-05-03 01:21:00,
2013-05-02 21:26:00,48.4,40.1,30.39,ENE,68,0.0,1.3,73,0.00,CLR,,0.00,WeatherDisplay:10.37,2013-05-03 01:26:00,
2013-05-02 21:31:00,48.2,39.6,30.39,NNW,338,0.0,1.3,72,0.00,CLR,,0.00,WeatherDisplay:10.37,2013-05-03 01:31:00,
2013-05-02 21:36:00,47.8,39.6,30.39,NW,315,0.0,1.3,73,0.00,CLR,,0.00,WeatherDisplay:10.37,2013-05-03 01:36:00,
2013-05-02 21:41:00,47.5,39.3,30.39,NW,315,0.0,1.3,73,0.00,CLR,,0.00,WeatherDisplay:10.37,2013-05-03 01:41:00,
2013-05-02 21:46:00,47.1,38.9,30.39,NW,315,0.0,1.3,73,0.00,CLR,,0.00,WeatherDisplay:10.37,2013-05-03 01:46:00,
2013-05-02 21:51:00,46.9,39.1,30.39,NW,315,0.0,1.3,74,0.00,CLR,,0.00,WeatherDisplay:10.37,2013-05-03 01:51:00,
2013-05-02 21:56:00,46.6,38.7,30.38,NW,315,0.0,1.3,74,0.00,CLR,,0.00,WeatherDisplay:10.37,2013-05-03 01:56:00,
2013-05-02 22:01:00,46.2,38.4,30.38,NW,315,0.0,1.1,74,0.00,CLR,,0.00,WeatherDisplay:10.37,2013-05-03 02:01:00,
2013-05-02 22:06:00,45.9,38.4,30.38,NW,315,0.0,0.0,75,0.00,CLR,,0.00,WeatherDisplay:10.37,2013-05-03 02:06:00,
2013-05-02 22:11:00,45.7,38.2,30.39,NNW,338,0.5,0.5,75,0.00,CLR,,0.00,WeatherDisplay:10.37,2013-05-03 02:11:00,
2013-05-02 22:16:00,45.3,37.5,30.39,North,0,0.0,0.0,74,0.00,CLR,,0.00,WeatherDisplay:10.37,2013-05-03 02:16:00,
2013-05-02 22:21:00,45.0,37.2,30.39,North,0,0.0,0.0,74,0.00,CLR,,0.00,WeatherDisplay:10.37,2013-05-03 02:21:00,
2013-05-02 22:26:00,44.8,37.3,30.38,NNW,338,0.0,0.0,75,0.00,CLR,,0.00,WeatherDisplay:10.37,2013-05-03 02:26:00,
2013-05-02 22:31:00,44.4,37.3,30.39,NNW,338,0.0,0.0,76,0.00,CLR,,0.00,WeatherDisplay:10.37,2013-05-03 02:31:00,
2013-05-02 22:36:00,44.2,37.2,30.38,NNW,338,0.0,0.0,76,0.00,CLR,,0.00,WeatherDisplay:10.37,2013-05-03 02:36:00,
2013-05-02 22:41:00,43.9,36.8,30.38,NNW,338,0.0,0.0,76,0.00,CLR,,0.00,WeatherDisplay:10.37,2013-05-03 02:41:00,
2013-05-02 22:46:00,43.7,36.6,30.38,NNW,338,0.0,0.0,76,0.00,CLR,,0.00,WeatherDisplay:10.37,2013-05-03 02:46:00,
2013-05-02 22:51:00,43.5,36.8,30.38,NNW,338,0.0,0.0,77,0.00,CLR,,0.00,WeatherDisplay:10.37,2013-05-03 02:51:00,
2013-05-02 22:56:00,43.5,36.8,30.38,NNW,338,0.0,0.0,77,0.00,CLR,,0.00,WeatherDisplay:10.37,2013-05-03 02:56:00,
2013-05-02 23:01:00,43.2,36.4,30.38,NNW,338,0.0,0.0,77,0.00,CLR,,0.00,WeatherDisplay:10.37,2013-05-03 03:01:00,
2013-05-02 23:06:00,43.0,36.3,30.38,NNW,338,0.0,0.0,77,0.00,CLR,,0.00,WeatherDisplay:10.37,2013-05-03 03:06:00,
2013-05-02 23:11:00,42.8,36.4,30.38,NNW,338,0.0,0.0,78,0.00,CLR,,0.00,WeatherDisplay:10.37,2013-05-03 03:11:00,